Regional Weather Roundup
Issued by NWS

Home | Current Version | Previous Version | Graphics & Text | Print | Product List | Glossary On
Versions: 1 2 3 4 5 6 7 8 9 10 11 12 13 14 15 16 17 18 19 20 21 22 23 24 25 26 27 28 29 30 31 32 33 34 35 36 37 38 39 40 41 42 43 44 45 46 47 48 49 50
000
ASUS44 KMEG 020410
RWRTN
TENNESSEE HOURLY STATE WEATHER ROUNDUP
NATIONAL WEATHER SERVICE MEMPHIS TN
1100 PM CDT WED APR 01 2015

TNZ002-004-019-021-049-052-054-088>092-020500-
WEST TENNESSEE

CITY           SKY/WX    TMP DP  RH WIND       PRES   REMARKS
MEMPHIS INTL   CLOUDY    72  60  66 S13       29.96S
NWS MEMPHIS      N/A     69 N/A N/A MISG        N/A
JACKSON        PTCLDY    65  60  84 S5        29.98S
DYERSBURG      MOCLDY    64  48  55 SE7       29.97S
UNION CITY     PTCLDY    61  57  88 SE8       29.95S
PARIS          CLEAR     61  50  67 SW3       29.99R
HUNTINGDON     PTCLDY    60  54  80 S5        29.99R
LEXINGTON      CLEAR     63  59  88 S5        29.98R
SAVANNAH       MOCLDY    63  61  94 CALM      30.01S
$$

TNZ008-025-027-028-033-062-065-066-020500-
NORTH MIDDLE TENNESSEE

CITY           SKY/WX    TMP DP  RH WIND       PRES   REMARKS
NASHVILLE      CLOUDY    59  39  47 S5        30.03F
CLARKSVILLE    CLOUDY    63  37  38 E12       29.97F
SMYRNA         CLOUDY    57  42  57 CALM      30.04F
COOKEVILLE     CLEAR     46  39  76 E3          N/A
CROSSVILLE     MOCLDY    56  25  30 S3        30.12S
$$

TNZ061-075-076-078-094-096-097-020500-
SOUTH MIDDLE TENNESSEE

CITY           SKY/WX    TMP DP  RH WIND       PRES   REMARKS
FAYETTEVILLE   MOCLDY    63  45  51 SE5       30.06S
TULLAHOMA      CLEAR     55  45  67 CALM      30.08S
WINCHESTER     CLEAR     57  45  62 S3        30.07F
MCMINNVILLE    CLEAR     54  41  62 NE13      30.07F
COLUMBIA       CLEAR     64  52  63 CALM      30.01F
SHELBYVILLE    CLEAR     61  43  51 SE5       30.06S
$$

TNZ017-018-042-046-047-020500-
NORTHEAST TENNESSEE

CITY           SKY/WX    TMP DP  RH WIND       PRES   REMARKS
TRI CITIES     PTCLDY    47  30  51 CALM      30.15R
ELIZABETHTON   CLEAR     45  28  53 VRB3      30.16S
$$

TNZ012-013-036-069-073-074-020500-
CENTRAL EAST TENNESSEE

CITY           SKY/WX    TMP DP  RH WIND       PRES   REMARKS
KNOXVILLE      CLOUDY    56  32  40 CALM      30.11R
OAK RIDGE      PTCLDY    52  38  58 CALM      30.13R
GATLINBURG     CLEAR     46  36  66 CALM      30.11S
MORRISTOWN     CLEAR     52  32  46 CALM      30.12F
$$

TNZ083-085-099-020500-
SOUTHEAST TENNESSEE

CITY           SKY/WX    TMP DP  RH WIND       PRES   REMARKS
CHATTANOOGA    PTCLDY    56  44  64 CALM      30.10S
$$

SKY/WX REPORTED AS FAIR MEANS FEW OR NO CLOUDS BELOW
12 THOUSAND FEET.



USA.gov is the U.S. government's official web portal to all federal, state and local government web resources and services.